Roseburg, OR

8:52 AM PST on December 15, 2017 (GMT -0800)
Roseburg Regional

Weather History for KRBG - December, 2012

Change the Weather History Date:

Sunday, December 23, 2012

  Actual Average Record
Temperature  
Mean Temperature 39 °F 42 °F  
Max Temperature 43 °F 47 °F 65 °F (1947)
Min Temperature 34 °F 36 °F 12 °F (1998)
Degree Days  
Heating Degree Days 26 23  
Month to date heating degree days 494 523  
Since 1 July heating degree days 1196 1452  
Cooling Degree Days 0 0  
Month to date cooling degree days 0 0  
Year to date cooling degree days 496 480  
Moisture  
Dew Point 37 °F    
Average Humidity 95    
Maximum Humidity 100    
Minimum Humidity 89    
Precipitation  
Precipitation 0.65 in 0.24 in 1.67 in (1951)
Month to date precipitation 7.39 4.75  
Year to date precipitation 41.45 34.49  
Sea Level Pressure  
Sea Level Pressure 29.78 in    
Wind  
Wind Speed 1 mph (SSE)    
Max Wind Speed 7 mph    
Max Gust Speed 10 mph    
Visibility 5 miles    
Events Fog , Rain , Snow    
T = Trace of Precipitation, MM = Missing Value Source: NWS Daily Summary

Daily Weather History Graph

Daily Weather History Graph

Search for Another Location

Airport or City:

Trip Planner

Search our weather history database for the weather conditions in past years. The results will help you decide how hot, cold, wet, or windy it might be!

Date:

Astronomy

Dec. 23, 2012 Rise Set
Actual Time 7:43 AM PST 4:42 PM PST
Civil Twilight 7:10 AM PST 5:14 PM PST
Nautical Twilight 6:34 AM PST 5:50 PM PST
Astronomical Twilight 6:00 AM PST 6:25 PM PST
Moon 1:39 PM PST (12/23) 3:27 AM PST (12/23)
Length of Visible Light 10h 04m
Length of Day
8h 58m
Waxing Gibbous, 82% of the Moon is Illuminated
Dec 23
Waxing Gibbous
Dec 28
Full
Jan 4
Last Quarter
Jan 11
New
Jan 18
First Quarter

Hourly Weather History & Observations

Time (PST) Temp. Windchill Dew Point Humidity Pressure Visibility Wind Dir Wind Speed Gust Speed Precip Events Conditions
12:50 AM 35.6 °F - 35.6 °F 100% 29.83 in 1.8 mi Calm Calm - N/A   Overcast
12:53 AM 35.1 °F - 35.1 °F 100% 29.84 in 1.0 mi Calm Calm - N/A   Overcast
1:00 AM 35.6 °F - 35.6 °F 100% 29.83 in 0.5 mi Calm Calm - N/A Fog Fog
1:33 AM 35.6 °F - 35.6 °F 100% 29.83 in 1.0 mi Calm Calm - N/A   Overcast
1:53 AM 36.0 °F - - N/A% 29.84 in 1.8 mi Calm Calm - N/A   Overcast
2:13 AM 35.6 °F - - N/A% 29.82 in 0.5 mi Calm Calm - N/A Fog Fog
2:24 AM 35.6 °F - - N/A% 29.81 in 0.2 mi Calm Calm - N/A Fog Fog
2:36 AM 35.6 °F - - N/A% 29.81 in 0.5 mi Calm Calm - N/A Fog Fog
2:53 AM 35.1 °F - - N/A% 29.82 in 0.2 mi Calm Calm - N/A Fog Fog
3:01 AM 35.6 °F - - N/A% 29.80 in 0.5 mi Calm Calm - N/A Fog Fog
3:19 AM 35.6 °F - - N/A% 29.80 in 1.8 mi Calm Calm - N/A   Overcast
3:26 AM 35.6 °F - - N/A% 29.80 in 3.0 mi Calm Calm - N/A   Overcast
3:38 AM 35.6 °F - - N/A% 29.79 in 2.0 mi Calm Calm - N/A   Overcast
4:07 AM 35.6 °F - - N/A% 29.77 in 3.0 mi Calm Calm - N/A   Overcast
4:14 AM 35.6 °F - - N/A% 29.77 in 4.0 mi Calm Calm - N/A   Haze
4:53 AM 36.0 °F - - N/A% 29.77 in 4.0 mi Calm Calm - N/A   Haze
5:29 AM 35.6 °F - - N/A% 29.75 in 2.5 mi Calm Calm - N/A   Overcast
5:49 AM 35.6 °F - - N/A% 29.74 in 4.0 mi Calm Calm - N/A   Haze
5:53 AM 36.0 °F - - N/A% 29.74 in 5.0 mi Calm Calm - N/A   Haze
6:48 AM 35.6 °F - 35.6 °F 100% 29.70 in 6.0 mi Calm Calm - 0.00 in Rain Light Rain
6:53 AM 36.0 °F - 36.0 °F 100% 29.71 in 6.0 mi Calm Calm - 0.00 in Rain Light Rain
7:28 AM 35.6 °F - 35.6 °F 100% 29.68 in 7.0 mi Calm Calm - 0.00 in   Overcast
7:53 AM 37.0 °F - 36.0 °F 96% 29.66 in 7.0 mi Calm Calm - 0.00 in Rain Light Rain
8:21 AM 37.4 °F - 35.6 °F 93% 29.63 in 3.0 mi Calm Calm - 0.01 in Rain Light Rain
8:29 AM 37.4 °F - 35.6 °F 93% 29.63 in 1.8 mi Calm Calm - 0.02 in Rain Light Rain
8:43 AM 35.6 °F - 35.6 °F 100% 29.64 in 3.0 mi Calm Calm - 0.03 in Rain Light Rain
8:53 AM 36.0 °F - 36.0 °F 100% 29.65 in 4.0 mi Calm Calm - 0.04 in Rain Light Rain
9:04 AM 37.4 °F - 35.6 °F 93% 29.62 in 3.0 mi Calm Calm - 0.03 in Rain Rain
9:40 AM 37.4 °F 33.8 °F 35.6 °F 93% 29.62 in 2.5 mi SW 4.6 mph - 0.13 in Rain Rain
9:53 AM 37.0 °F - 36.0 °F 96% 29.62 in 2.0 mi Calm Calm - 0.17 in Rain Rain
10:12 AM 37.4 °F - 37.4 °F 100% 29.62 in 1.8 mi Calm Calm - 0.06 in Rain Rain
10:19 AM 37.4 °F - 37.4 °F 100% 29.60 in 2.0 mi Calm Calm - 0.08 in Rain Rain
10:29 AM 37.4 °F - 35.6 °F 93% 29.61 in 6.0 mi Calm Calm - 0.09 in Rain Light Rain
10:53 AM 36.0 °F - 34.0 °F 93% 29.63 in 5.0 mi Calm Calm - 0.14 in Rain Light Rain
11:33 AM 33.8 °F - 33.8 °F 100% 29.63 in 4.0 mi Calm Calm - 0.08 in Snow Light Snow
11:53 AM 34.0 °F 31.0 °F 33.1 °F 96% 29.67 in 4.0 mi SE 3.5 mph - 0.10 in Rain Rain
12:15 PM 35.6 °F 30.7 °F 35.6 °F 100% 29.65 in 9.0 mi SSE 5.8 mph - 0.02 in Rain Light Rain
12:53 PM 37.0 °F 31.6 °F 35.1 °F 93% 29.69 in 10.0 mi SE 6.9 mph - 0.02 in Rain Light Rain
1:53 PM 39.9 °F - 37.0 °F 89% 29.71 in 10.0 mi Calm Calm - 0.00 in   Overcast
2:53 PM 42.1 °F 39.2 °F 39.0 °F 89% 29.74 in 10.0 mi SSE 4.6 mph - N/A   Overcast
3:53 PM 43.0 °F 40.3 °F 39.9 °F 89% 29.77 in 10.0 mi SE 4.6 mph - 0.00 in   Overcast
4:49 PM 42.8 °F 40.1 °F 39.2 °F 87% 29.80 in 6.0 mi WNW 4.6 mph - 0.02 in Rain Light Rain
4:53 PM 43.0 °F 39.5 °F 39.0 °F 86% 29.82 in 5.0 mi West 5.8 mph - 0.03 in Rain Rain
5:41 PM 41.0 °F - 37.4 °F 87% 29.83 in 10.0 mi Calm Calm - 0.05 in Rain Light Rain
5:53 PM 41.0 °F - 39.0 °F 93% 29.84 in 10.0 mi Calm Calm - 0.06 in   Overcast
6:53 PM 41.0 °F - 39.0 °F 93% 29.88 in 10.0 mi Calm Calm - 0.00 in Rain Light Rain
7:05 PM 41.0 °F 38.0 °F 37.4 °F 87% 29.88 in 3.0 mi WNW 4.6 mph - 0.04 in Rain Heavy Rain
7:24 PM 39.2 °F - 37.4 °F 93% 29.87 in 10.0 mi Calm Calm - 0.05 in Rain Light Rain
7:53 PM 39.9 °F 37.8 °F 37.9 °F 93% 29.91 in 10.0 mi SE 3.5 mph - 0.06 in Rain Light Rain
8:53 PM 39.9 °F 36.7 °F 37.9 °F 93% 29.94 in 9.0 mi North 4.6 mph - 0.01 in Rain Light Rain
9:39 PM 39.2 °F 37.0 °F 37.4 °F 93% 29.95 in 8.0 mi SSW 3.5 mph - 0.01 in Rain Light Rain
9:53 PM 39.0 °F - 37.9 °F 96% 29.97 in 10.0 mi Calm Calm - 0.01 in Rain Light Rain
10:12 PM 37.4 °F 33.8 °F 37.4 °F 100% 29.96 in 10.0 mi ESE 4.6 mph - 0.00 in   Mostly Cloudy
10:19 PM 37.4 °F 34.9 °F 37.4 °F 100% 29.97 in 10.0 mi SSE 3.5 mph - 0.00 in   Mostly Cloudy
10:25 PM 39.2 °F - 37.4 °F 93% 29.98 in 10.0 mi Calm Calm - 0.00 in   Mostly Cloudy
10:32 PM 39.2 °F - 37.4 °F 93% 29.98 in 9.0 mi Calm Calm - 0.00 in Rain Light Rain
10:53 PM 37.9 °F - 37.0 °F 97% 30.00 in 10.0 mi Calm Calm - 0.00 in   Mostly Cloudy
11:53 PM 37.9 °F - 37.0 °F 97% 30.03 in 10.0 mi Calm Calm - 0.01 in Rain Light Rain